Find Starlink 33806

NORAD ID: 63723 Int'l Des: 2025-087 Owner: SPXS Country: US Constellation: starlink operational
LEOCIRCULAR

Live Position

Loading 3D Globe...

About Starlink 33806

Description loading...

Upcoming Passes

Passes for default location (London). Set your location on the main map for personalized predictions.

Altitude History

Loading altitude history...

Two-Line Element Set

1 63723U 25087AC 26107.24691467 .00008203 00000-0 28876-3 0 9995
2 63723 53.1601 40.4031 0001290 92.4033 267.7116 15.30201523 55107
Epoch: Apr 17, 2026 • Age: 9 hours

Current Status

Altitude 475.7 km
Velocity 7.63 km/s
Sub-Earth Point 3.79°N, 34.64°W
Launch Date Apr 28, 2025
Age 0.9 years
Type internet

Technical Details

Classification Payload
Mass 575.00 kg
Dry Mass 530.00 kg
Total Mass 575.00 kg
Length 0.30 m
Diameter 4.10 m
Span 29.00 m
Shape Box + pan
Manufacturer SPXS
Bus Type Starlink V2MO
Phase Status In Orbit
Owner/State SPXS/US

Most Searched